Back to catalog

THOR ABLESTAR DEB

AlivePO
NORAD 1435·DEBRIS·🇺🇸 United States

Launched Jun 24, 1965 from Vandenberg Space Force Base

Loading…

Next Passes (next 24 hours)

TLE

FreshSource: Space-Track

Epoch: Sep 13, 2026, 14:43 UTC

1 01435U 65048D   26256.61353125  .00000466  00000-0  48352-3 0  9994
2 01435  89.8748 288.8849 0058277  51.3573  76.5801 13.73446879 39022

Track THOR ABLESTAR DEB in real time with AllMySat

Download on the App Store